Погода в Сьенфуэгосе

Куба     22°08′50″N   80°26′34″W
темп.,
°C
ветер,
м/с
пор.,
м/с
влажн.,
%
обл.,
%
осадки,
мм/ч
давл.,
гПа
погр.,
м
18 апреля, вс
вс1823:00+23ю24922 0.0 101494
02:00+22юв2292100 0.0 101425
05:00+22в229211 0.0 101421
08:00+24в23795 0.0 1015126
11:00+32ю56454 0.0 10151446
14:00+33ю894324 0.0 10131445
17:00+32ю810462 0.0 10121199
20:00+26ю59771 0.0 1013462
19 апреля, пн
пн1923:00+24юв22900 0.0 101531
02:00+23юв22833 0.0 101527
05:00+23ююв3587100 0.0 1014105
08:00+25ююв37820 0.0 1015468
11:00+31ю89520 0.0 10151413
14:00+33ю810430 0.0 10141511
17:00+31ююз78460 0.0 10131210
20:00+25ююз36760 0.0 1015173
20 апреля, вт
вт2023:00+24ююз22880 0.0 101536
02:00+23ююв22910 0.0 101532
05:00+22ююв22925 0.0 101421
08:00+24юв24811 0.0 1017155
11:00+31ю67460 0.0 10171458
14:00+33ю88400 0.0 10151417
17:00+32ююз674118 0.0 10141297
20:00+26ююз367218 0.0 1015140
21 апреля, ср
ср2123:00+23зюз22864 0.0 101624
02:00+22в11914 0.0 101711
05:00+21вюв01925 0.0 101611
08:00+23ссв008114 0.0 101797
11:00+32ююз22405 0.0 10171317
14:00+35ююз752930 0.0 10152012
17:00+32ююз77356 0.0 10141208
20:00+26ююз356311 0.0 1016108
22 апреля, чт
чт2223:00+24ююз118028 0.0 101730
02:00+23юв118347 0.0 101616
05:00+22ссв118314 0.0 101511
08:00+24св22715 0.0 1017146
11:00+32св33391 0.0 10171608
14:00+37ююз22250 0.0 10143126
17:00+32ю334391 0.1 10141463
20:00+23в4786100 9.8 1017236